| time (UTC) | temp F | wind direction | speed MPH | gust MPH | rain 1hr in | rain 24hr in | rain mn in | humidity % | barometer mb |
| 20260506090000 | 54 | 340 | 2.0 | 4.0 | 0.00 | 0.00 | 0.06 | 90 | 1005.9 |
| 20260506085005 | 54 | 334 | 2.0 | 5.0 | 0.00 | 0.00 | 0.06 | 90 | 1005.8 |
| 20260506084000 | 54 | 337 | 2.0 | 6.0 | 0.00 | 0.00 | 0.06 | 90 | 1005.7 |
| 20260506083005 | 54 | 349 | 3.0 | 4.0 | 0.00 | 0.00 | 0.06 | 90 | 1005.6 |
| 20260506082000 | 54 | 352 | 2.0 | 4.0 | 0.00 | 0.00 | 0.06 | 90 | 1005.7 |
| 20260506081000 | 54 | 1 | 2.0 | 5.0 | 0.00 | 0.00 | 0.06 | 90 | 1005.7 |
| 20260506073004 | 54 | 352 | 2.0 | 4.0 | 0.00 | 0.00 | 0.06 | 91 | 1005.7 |
| 20260506072001 | 54 | 356 | 1.0 | 3.0 | 0.00 | 0.00 | 0.06 | 91 | 1005.6 |
| 20260506071004 | 54 | 338 | 1.0 | 3.0 | 0.00 | 0.00 | 0.06 | 91 | 1005.6 |
| 20260506062005 | 53 | 23 | 1.0 | 2.0 | 0.00 | 0.00 | 0.06 | 92 | 1005.4 |
| 20260506061001 | 53 | 45 | 1.0 | 2.0 | 0.00 | 0.00 | 0.06 | 92 | 1005.4 |
| 20260506051004 | 53 | 23 | 1.0 | 1.0 | 0.02 | 0.00 | 0.06 | 92 | 1005.5 |
| 20260506045005 | 53 | 206 | 1.0 | 1.0 | 0.02 | 0.00 | 0.05 | 92 | 1005.7 |
| 20260506044004 | 53 | 322 | 1.0 | 2.0 | 0.02 | 0.00 | 0.04 | 92 | 1005.7 |
| 20260506043000 | 53 | 16 | 1.0 | 2.0 | 0.02 | 0.00 | 0.04 | 92 | 1005.6 |
| 20260506042005 | 53 | 90 | 1.0 | 1.0 | 0.01 | 0.00 | 0.04 | 92 | 1005.7 |
| 20260506041004 | 53 | 90 | 1.0 | 1.0 | 0.00 | 0.00 | 0.03 | 92 | 1005.7 |
| 20260506040004 | 53 | 124 | 1.0 | 2.0 | 0.00 | 0.00 | 0.03 | 91 | 1005.7 |
| 20260506035001 | 53 | 329 | 1.0 | 2.0 | 0.00 | 0.00 | 0.03 | 91 | 1005.7 |
| 20260506034005 | 53 | 355 | 1.0 | 2.0 | 0.00 | 0.00 | 0.03 | 92 | 1005.7 |
| 20260506033005 | 53 | 17 | 1.0 | 4.0 | 0.00 | 0.00 | 0.03 | 92 | 1005.6 |
| 20260506032000 | 53 | 358 | 1.0 | 3.0 | 0.01 | 0.00 | 0.03 | 91 | 1005.6 |
| 20260506031004 | 53 | 343 | 1.0 | 3.0 | 0.01 | 0.00 | 0.03 | 91 | 1005.7 |
| 20260506030000 | 53 | 341 | 1.0 | 3.0 | 0.01 | 0.00 | 0.03 | 91 | 1005.9 |
| 20260506025004 | 53 | 341 | 1.0 | 3.0 | 0.01 | 0.00 | 0.03 | 91 | 1005.9 |
| 20260506024000 | 53 | 339 | 2.0 | 4.0 | 0.01 | 0.00 | 0.03 | 90 | 1006.0 |
| 20260506023004 | 53 | 354 | 1.0 | 3.0 | 0.01 | 0.00 | 0.02 | 91 | 1006.0 |
| 20260506022000 | 53 | 354 | 1.0 | 3.0 | 0.01 | 0.00 | 0.02 | 91 | 1006.0 |
| 20260506021004 | 53 | 329 | 1.0 | 2.0 | 0.01 | 0.00 | 0.02 | 91 | 1006.2 |
| 20260506020005 | 53 | 338 | 1.0 | 2.0 | 0.01 | 0.00 | 0.02 | 90 | 1006.2 |
| 20260506015000 | 53 | 338 | 1.0 | 2.0 | 0.01 | 0.00 | 0.02 | 90 | 1006.2 |
| 20260506014000 | 54 | 330 | 1.0 | 2.0 | 0.01 | 0.00 | 0.02 | 91 | 1006.4 |
| 20260506013001 | 54 | 317 | 1.0 | 2.0 | 0.00 | 0.00 | 0.01 | 91 | 1006.5 |
| 20260506012004 | 54 | 317 | 1.0 | 2.0 | 0.00 | 0.00 | 0.01 | 91 | 1006.5 |
| 20260506011001 | 54 | 320 | 1.0 | 2.0 | 0.00 | 0.00 | 0.01 | 90 | 1006.5 |
| 20260506010004 | 54 | 317 | 1.0 | 2.0 | 0.00 | 0.00 | 0.01 | 91 | 1006.5 |
| 20260506005000 | 54 | 317 | 1.0 | 2.0 | 0.00 | 0.00 | 0.01 | 91 | 1006.5 |
| 20260506004005 | 54 | 327 | 1.0 | 2.0 | 0.00 | 0.00 | 0.01 | 90 | 1006.6 |
| 20260506003000 | 54 | 340 | 1.0 | 3.0 | 0.00 | 0.00 | 0.01 | 90 | 1006.6 |
| 20260506002001 | 54 | 340 | 1.0 | 3.0 | 0.01 | 0.00 | 0.01 | 90 | 1006.6 |
| 20260506001000 | 54 | 342 | 1.0 | 2.0 | 0.01 | 0.00 | 0.01 | 90 | 1006.7 |
| 20260506000004 | 54 | 332 | 1.0 | 3.0 | 0.01 | 0.00 | 0.01 | 90 | 1006.9 |
| 20260505235004 | 54 | 332 | 1.0 | 3.0 | 0.01 | 0.00 | 0.01 | 90 | 1006.9 |
| 20260505234000 | 54 | 321 | 1.0 | 3.0 | 0.01 | 0.00 | 0.01 | 90 | 1007.0 |
| 20260505233001 | 55 | 282 | 2.0 | 4.0 | 0.00 | 0.00 | 0.00 | 90 | 1007.1 |
| 20260505232004 | 55 | 282 | 2.0 | 4.0 | 0.00 | 0.00 | 0.00 | 90 | 1007.1 |
| 20260505231001 | 55 | 270 | 1.0 | 2.0 | 0.00 | 0.00 | 0.00 | 90 | 1007.1 |
| 20260505230005 | 55 | 291 | 2.0 | 4.0 | 0.00 | 0.00 | 0.00 | 89 | 1007.2 |
| 20260505225004 | 55 | 291 | 2.0 | 4.0 | 0.00 | 0.00 | 0.00 | 89 | 1007.2 |
| 20260505224004 | 55 | 297 | 2.0 | 5.0 | 0.00 | 0.00 | 0.00 | 90 | 1007.1 |
| 20260505223000 | 56 | 308 | 1.0 | 4.0 | 0.00 | 0.00 | 0.00 | 89 | 1007.2 |
| 20260505222004 | 56 | 308 | 1.0 | 4.0 | 0.00 | 0.00 | 0.00 | 89 | 1007.2 |
| 20260505221004 | 56 | 230 | 2.0 | 6.0 | 0.00 | 0.00 | 0.00 | 89 | 1007.1 |
| 20260505220000 | 56 | 348 | 1.0 | 2.0 | 0.00 | 0.00 | 0.43 | 90 | 1007.2 |
| 20260505215001 | 56 | 348 | 1.0 | 2.0 | 0.00 | 0.00 | 0.43 | 90 | 1007.2 |
| 20260505214004 | 56 | 14 | 2.0 | 4.0 | 0.02 | 0.00 | 0.43 | 90 | 1007.4 |
| 20260505213004 | 56 | 14 | 2.0 | 4.0 | 0.02 | 0.00 | 0.43 | 90 | 1007.4 |
| 20260505212000 | 56 | 14 | 2.0 | 4.0 | 0.02 | 0.00 | 0.43 | 90 | 1007.4 |
| 20260505211005 | 56 | 14 | 2.0 | 4.0 | 0.02 | 0.00 | 0.43 | 90 | 1007.4 |
| 20260505210004 | 56 | 14 | 2.0 | 4.0 | 0.02 | 0.00 | 0.43 | 90 | 1007.4 |
| 20260505205004 | 57 | 48 | 1.0 | 4.0 | 0.02 | 0.00 | 0.43 | 90 | 1007.5 |
| 20260505204000 | 57 | 270 | 2.0 | 5.0 | 0.02 | 0.00 | 0.43 | 90 | 1007.6 |
| 20260505203004 | 57 | 270 | 2.0 | 5.0 | 0.02 | 0.00 | 0.43 | 90 | 1007.6 |
| 20260505202000 | 57 | 270 | 1.0 | 2.0 | 0.03 | 0.00 | 0.42 | 90 | 1007.5 |
| 20260505201001 | 57 | 245 | 2.0 | 4.0 | 0.02 | 0.00 | 0.41 | 89 | 1007.5 |
| 20260505200004 | 57 | 194 | 2.0 | 3.0 | 0.02 | 0.00 | 0.41 | 89 | 1007.4 |
| 20260505195001 | 57 | 351 | 1.0 | 4.0 | 0.02 | 0.00 | 0.40 | 89 | 1007.3 |
| 20260505194004 | 58 | 188 | 1.0 | 2.0 | 0.03 | 0.00 | 0.40 | 90 | 1007.2 |
| 20260505193004 | 58 | 316 | 2.0 | 6.0 | 0.03 | 0.00 | 0.40 | 89 | 1007.2 |
| 20260505192004 | 58 | 312 | 1.0 | 4.0 | 0.02 | 0.00 | 0.39 | 89 | 1007.2 |
| 20260505191000 | 58 | 355 | 1.0 | 2.0 | 0.02 | 0.00 | 0.39 | 89 | 1007.2 |
| 20260505190004 | 58 | 9 | 1.0 | 4.0 | 0.02 | 0.00 | 0.38 | 89 | 1007.2 |
| 20260505185000 | 59 | 330 | 2.0 | 4.0 | 0.03 | 0.00 | 0.38 | 89 | 1007.2 |
| 20260505184004 | 59 | 338 | 1.0 | 4.0 | 0.03 | 0.00 | 0.37 | 90 | 1007.1 |
| 20260505183000 | 59 | 338 | 1.0 | 2.0 | 0.03 | 0.00 | 0.37 | 91 | 1007.1 |
| 20260505182001 | 59 | 315 | 1.0 | 2.0 | 0.04 | 0.00 | 0.37 | 90 | 1007.2 |
| 20260505181004 | 60 | 166 | 1.0 | 2.0 | 0.04 | 0.00 | 0.36 | 90 | 1007.1 |
| 20260505180000 | 60 | 155 | 1.0 | 1.0 | 0.04 | 0.00 | 0.36 | 90 | 1007.2 |
| 20260505175000 | 60 | 201 | 1.0 | 2.0 | 0.04 | 0.00 | 0.35 | 90 | 1007.2 |
| 20260505174000 | 60 | 270 | 1.0 | 1.0 | 0.03 | 0.00 | 0.34 | 90 | 1007.2 |
| 20260505173000 | 60 | 220 | 1.0 | 2.0 | 0.03 | 0.00 | 0.34 | 90 | 1007.2 |
| 20260505172000 | 60 | 270 | 1.0 | 2.0 | 0.02 | 0.00 | 0.33 | 89 | 1007.3 |
| 20260505171000 | 60 | 270 | 1.0 | 2.0 | 0.02 | 0.00 | 0.32 | 89 | 1007.2 |
| 20260505170000 | 60 | 301 | 2.0 | 4.0 | 0.02 | 0.00 | 0.32 | 89 | 1007.3 |
| 20260505165004 | 60 | 300 | 2.0 | 4.0 | 0.02 | 0.00 | 0.31 | 89 | 1007.3 |
| 20260505164005 | 60 | 298 | 2.0 | 5.0 | 0.03 | 0.00 | 0.31 | 89 | 1007.4 |
| 20260505163004 | 60 | 302 | 2.0 | 4.0 | 0.03 | 0.00 | 0.31 | 89 | 1007.4 |
| 20260505162000 | 60 | 233 | 1.0 | 2.0 | 0.04 | 0.00 | 0.31 | 90 | 1007.4 |
| 20260505161004 | 60 | 270 | 2.0 | 4.0 | 0.05 | 0.00 | 0.30 | 89 | 1007.5 |
| 20260505153005 | 61 | 255 | 2.0 | 7.0 | 0.26 | 0.00 | 0.28 | 88 | 1007.6 |
| 20260505152000 | 61 | 144 | 2.0 | 13.0 | 0.25 | 0.00 | 0.27 | 87 | 1007.6 |
| 20260505151004 | 62 | 175 | 3.0 | 8.0 | 0.13 | 0.00 | 0.14 | 83 | 1007.8 |
| 20260505125004 | 64 | 3 | 2.0 | 6.0 | 0.00 | 0.00 | 0.01 | 77 | 1008.0 |
| 20260505124001 | 64 | 21 | 2.0 | 4.0 | 0.00 | 0.00 | 0.01 | 77 | 1008.1 |
| 20260505123004 | 64 | 12 | 2.0 | 6.0 | 0.00 | 0.00 | 0.01 | 78 | 1008.2 |
| 20260505122004 | 64 | 2 | 2.0 | 6.0 | 0.00 | 0.00 | 0.01 | 78 | 1008.2 |
| 20260505121004 | 63 | 8 | 2.0 | 7.0 | 0.00 | 0.00 | 0.01 | 80 | 1008.3 |
| 20260505120005 | 63 | 12 | 2.0 | 6.0 | 0.00 | 0.00 | 0.01 | 79 | 1008.4 |
| 20260505115000 | 63 | 14 | 2.0 | 6.0 | 0.00 | 0.00 | 0.01 | 79 | 1008.4 |
| 20260505114000 | 63 | 14 | 2.0 | 7.0 | 0.00 | 0.00 | 0.01 | 79 | 1008.5 |
| 20260505113005 | 63 | 3 | 2.0 | 6.0 | 0.00 | 0.00 | 0.01 | 79 | 1008.6 |
| 20260505112004 | 63 | 20 | 2.0 | 4.0 | 0.00 | 0.00 | 0.01 | 78 | 1008.7 |
| 20260505111001 | 64 | 10 | 2.0 | 6.0 | 0.00 | 0.00 | 0.01 | 76 | 1008.7 |
| 20260505102000 | 68 | 123 | 1.0 | 4.0 | 0.00 | 0.00 | 0.01 | 68 | 1008.9 |
| 20260505101005 | 68 | 70 | 1.0 | 6.0 | 0.00 | 0.00 | 0.01 | 71 | 1008.9 |
| 20260505100000 | 67 | 90 | 2.0 | 6.0 | 0.00 | 0.00 | 0.01 | 73 | 1009.0 |
| 20260505095001 | 67 | 71 | 2.0 | 6.0 | 0.00 | 0.00 | 0.01 | 76 | 1009.1 |
| 20260505094004 | 66 | 90 | 2.0 | 6.0 | 0.00 | 0.00 | 0.01 | 75 | 1009.1 |
| 20260505093004 | 66 | 90 | 1.0 | 4.0 | 0.00 | 0.00 | 0.01 | 77 | 1009.2 |
| 20260505092004 | 66 | 67 | 2.0 | 6.0 | 0.00 | 0.00 | 0.01 | 79 | 1009.3 |
| 20260505091004 | 65 | 71 | 1.0 | 4.0 | 0.00 | 0.00 | 0.01 | 79 | 1009.3 |